Location: B?lite?ti
(46.2833°N, 22.7333°E)
Time: 16:34:52
(UTC+00:00)

ISS - Pass Details

Date: 24 January 2021
Orbit: 417 x 421 km, 51.6° (Epoch: 01 March)

Event Time Altitude Azimuth Distance (km) Brightness Sun altitude
Rises 17:45:28 0° 277° (W) 2,372 1.4 -24.6°
Reaches altitude 10° 17:47:42 10° 287° (WNW) 1,509 0.0 -25.0°
Enters shadow 17:49:33 24° 312° (NW) 910 -1.7 -25.3°
